This is the latest recevied weather packets stored in our database for station/object DB2AG-10. If no packets are shown the sender has not sent any weather packets the latest 10 day(s).
| Time | Temp. | Humidity | Pressure | Rain* | Wind** | Luminosity | Snow |
|---|---|---|---|---|---|---|---|
| 1777980763 | 22.22° C | 44% | 1010.2 hPa | - | - | - | - |
| 1777979863 | 22.22° C | 43% | 1010.3 hPa | - | - | - | - |
| 1777978963 | 21.67° C | 43% | 1010.5 hPa | - | - | - | - |
| 1777978063 | 21.67° C | 44% | 1010.6 hPa | - | - | - | - |
| 1777977163 | 21.67° C | 44% | 1010.7 hPa | - | - | - | - |
| 1777976263 | 21.11° C | 43% | 1010.6 hPa | - | - | - | - |
| 1777975363 | 21.11° C | 43% | 1010.7 hPa | - | - | - | - |
| 1777974463 | 21.11° C | 43% | 1010.8 hPa | - | - | - | - |
| 1777973562 | 21.11° C | 43% | 1010.7 hPa | - | - | - | - |
| 1777972662 | 21.11° C | 43% | 1010.8 hPa | - | - | - | - |
| 1777971762 | 20.56° C | 44% | 1010.8 hPa | - | - | - | - |
| 1777970862 | 20.56° C | 44% | 1011 hPa | - | - | - | - |
| 1777969962 | 20° C | 45% | 1011 hPa | - | - | - | - |
| 1777969062 | 20° C | 45% | 1010.9 hPa | - | - | - | - |
| 1777968162 | 20° C | 45% | 1010.9 hPa | - | - | - | - |
| 1777967262 | 20° C | 45% | 1011 hPa | - | - | - | - |
| 1777966361 | 19.44° C | 45% | 1011 hPa | - | - | - | - |
| 1777965461 | 19.44° C | 45% | 1011 hPa | - | - | - | - |
| 1777964561 | 20° C | 44% | 1011 hPa | - | - | - | - |
| 1777963661 | 19.44° C | 44% | 1011.1 hPa | - | - | - | - |
| 1777962761 | 19.44° C | 44% | 1011.3 hPa | - | - | - | - |
| 1777961861 | 19.44° C | 44% | 1011.4 hPa | - | - | - | - |
| 1777960961 | 20° C | 44% | 1011.3 hPa | - | - | - | - |
| 1777960061 | 20° C | 44% | 1011.4 hPa | - | - | - | - |
| 1777959161 | 20° C | 44% | 1011.3 hPa | - | - | - | - |
* Rain since midnight (hover to see other rain measurements)
** Current wind speed in m/s (hover to see current wind gust speed)